User: anonymous   Login
Location: Newark
(40.2531°N, 0.7525°W)
Time: 23:20:04
(UTC+00:00)
Language:

AAUSAT CUBESAT 2 - Orbit

View from above orbital plane
View from above orbital plane
View from above satellite
View from above satellite

Ground track
Ground track

The orbit data is extracted from the following two-line orbital elements,

1 32788U 08021F   19349.85300986  .00000614  00000-0  61234-4 0  9995
2 32788  97.4925 357.5820 0010676 321.7568  38.2895 14.94888720631835
Epoch (UTC): 15 December 2019 20:28:20
Eccentricity: 0.0010676
inclination: 97.4925°
perigee height: 575 km
apogee height: 590 km
right ascension of ascending node: 357.5820°
argument of perigee: 321.7568°
revolutions per day: 14.94888720
mean anomaly at epoch: 38.2895°
orbit number at epoch: 63183

The dashed part of the orbit path shows where the satellite is in the earth's shadow,  

DLR